Location: R�serve Fauniques des Laurentides
(47.3100°N, 71.1900°W)
Time: 17:26:10
(UTC-04:00)

Cosmos 1674 - Visible Passes

Search period start: 17 August 2017 00:00
Search period end: 27 August 2017 00:00
Orbit: 499 x 521 km, 82.5° (Epoch: 16 August)

Date Brightness Start Highest point End Pass type
(mag) Time Alt. Az. Time Alt. Az. Time Alt. Az.
17 Aug 4.5 01:22:53 10° N 01:25:07 31° NNE 01:25:07 31° NNE visible
18 Aug 4.7 01:06:18 10° N 01:08:22 27° NNE 01:08:22 27° NNE visible
18 Aug 5.4 02:42:58 10° NW 02:43:15 11° NW 02:43:15 11° NW visible
19 Aug 4.9 00:49:44 10° N 00:51:38 23° NNE 00:51:38 23° NNE visible
19 Aug 5.3 02:25:56 10° NW 02:26:31 12° NW 02:26:31 12° NW visible
20 Aug 5.1 00:33:13 10° NNE 00:34:54 20° NNE 00:34:54 20° NNE visible
20 Aug 5.3 02:09:00 10° NW 02:09:47 14° NW 02:09:47 14° NW visible
21 Aug 5.2 00:16:44 10° NNE 00:18:11 17° NE 00:18:11 17° NE visible
21 Aug 5.3 01:52:09 10° NNW 01:53:04 15° NW 01:53:04 15° NW visible
22 Aug 5.4 00:00:19 10° NNE 00:01:29 15° NE 00:01:29 15° NE visible
22 Aug 5.3 01:35:21 10° NNW 01:36:22 17° NNW 01:36:22 17° NNW visible
22 Aug 5.5 23:43:59 10° NNE 23:44:47 13° NE 23:44:47 13° NE visible
23 Aug 5.3 01:18:35 10° NNW 01:19:40 18° NNW 01:19:40 18° NNW visible
23 Aug 5.6 23:27:47 10° NE 23:28:06 11° NE 23:28:06 11° NE visible
24 Aug 5.3 01:01:51 10° NNW 01:02:59 18° NNW 01:02:59 18° NNW visible
25 Aug 5.3 00:45:09 10° NNW 00:46:19 19° NNW 00:46:19 19° NNW visible
26 Aug 5.4 00:28:28 10° N 00:29:39 19° N 00:29:39 19° N visible
